SES-15 (42709 NORAD) Tracking and Keplerian Element Data

This shows tracking and keplerian element data for the satellite.

Feedback or suggestion? Click here.




ElementValue
Catalog42709
NameSES-15
Epoch Orbit795
Epoch Day109.70279725
Epoch Year2019
RAAN241.3802
Inclination0.0143
Eccentricity0.0001049
Argument of Perigee172.6001
Mean Anonmoly277.3837
Mean Motion1.0027123
Decay Rate4E-07
L11 42709U 17026A 19109.70279725 .00000040 00000-0 00000+0 0 9990
L22 42709 0.0143 241.3802 0001049 172.6001 277.3837 1.00271230 7957

Live tracking and technical data element details for SES-15 (NORAD 42709). SES-15 can be tracked NOW for your location showing map with azimuth and elevation plus other details from your city location.

Track the satellite on the map from your city or location and see movement details for azimuth, elevation, latitude, longitude, range, height, and movement on the map or in text.







IsCatalogInMostPopularTable: catalog: 42709, numindb: 200
Update: records affected: 1



GetName: 42709 SES-15

Hit Count: updated at: Sat, 20 Apr 2019 20:26:45 GMT